TimeMDT,TemperatureF,Dew PointF,Humidity,Sea Level PressureIn,VisibilityMPH,Wind Direction,Wind SpeedMPH,Gust SpeedMPH,PrecipitationIn,Events,Conditions,WindDirDegrees,DateUTC
12:53 AM,39.0,28.0,65,29.56,10.0,North,8.1,-,N/A,,Clear,360,2013-04-30 06:53:00
1:53 AM,37.9,28.0,68,29.58,10.0,NNW,8.1,-,N/A,,Overcast,340,2013-04-30 07:53:00
2:53 AM,35.1,25.0,67,29.61,10.0,North,9.2,21.9,N/A,,Overcast,350,2013-04-30 08:53:00
3:53 AM,35.1,23.0,61,29.63,10.0,Variable,5.8,-,N/A,,Overcast,0,2013-04-30 09:53:00
4:53 AM,34.0,23.0,64,29.65,10.0,NNW,3.5,-,N/A,,Overcast,330,2013-04-30 10:53:00
5:53 AM,34.0,19.9,56,29.67,10.0,NW,6.9,-,N/A,,Overcast,310,2013-04-30 11:53:00
6:53 AM,36.0,12.9,39,29.67,10.0,NW,10.4,-,N/A,,Overcast,310,2013-04-30 12:53:00
7:53 AM,36.0,12.9,39,29.70,10.0,NW,8.1,-,N/A,,Mostly Cloudy,310,2013-04-30 13:53:00
8:53 AM,39.9,12.0,32,29.69,10.0,WNW,13.8,25.3,N/A,,Scattered Clouds,290,2013-04-30 14:53:00
9:53 AM,39.9,14.0,35,29.73,10.0,Variable,6.9,21.9,N/A,,Partly Cloudy,0,2013-04-30 15:53:00
10:53 AM,43.0,17.1,35,29.77,10.0,NNE,4.6,-,N/A,,Mostly Cloudy,20,2013-04-30 16:53:00
11:53 AM,46.0,18.0,33,29.75,10.0,NNE,4.6,-,N/A,,Mostly Cloudy,20,2013-04-30 17:53:00
12:53 PM,45.0,21.0,39,29.78,10.0,Variable,3.5,-,N/A,,Overcast,0,2013-04-30 18:53:00
1:53 PM,43.0,21.0,42,29.80,10.0,SE,10.4,16.1,N/A,,Overcast,130,2013-04-30 19:53:00
2:53 PM,39.9,21.0,47,29.86,10.0,SE,11.5,18.4,N/A,,Overcast,140,2013-04-30 20:53:00
3:53 PM,36.0,27.0,70,29.91,10.0,ESE,10.4,-,N/A,,Overcast,110,2013-04-30 21:53:00
4:16 PM,33.8,28.4,81,29.91,1.8,East,9.2,-,0.00,Snow,Light Snow,90,2013-04-30 22:16:00
4:29 PM,33.8,28.4,81,29.90,1.2,East,11.5,-,0.00,Snow,Light Snow,100,2013-04-30 22:29:00
4:53 PM,32.0,30.0,92,29.94,0.8,ESE,6.9,-,0.00,Snow,Light Snow,110,2013-04-30 22:53:00
5:06 PM,32.0,30.2,93,29.92,0.5,East,3.5,-,0.01,Fog-Snow,Snow,100,2013-04-30 23:06:00
5:53 PM,30.9,28.9,92,29.98,0.5,ENE,3.5,-,0.06,Fog-Snow,Snow,60,2013-04-30 23:53:00
6:00 PM,30.2,28.4,93,29.94,0.5,Calm,Calm,-,0.00,Fog-Snow,Snow,0,2013-05-01 00:00:00
6:37 PM,30.2,30.2,100,29.96,0.5,NNE,3.5,-,0.04,Fog-Snow,Snow,20,2013-05-01 00:37:00
6:53 PM,30.0,28.0,92,30.01,0.2,NNE,12.7,18.4,0.06,Fog-Snow,Snow,30,2013-05-01 00:53:00
7:02 PM,30.2,28.4,93,29.98,0.2,North,4.6,-,0.01,Fog-Snow,Snow,10,2013-05-01 01:02:00
7:16 PM,30.2,26.6,86,29.98,0.5,NNE,5.8,-,0.02,Fog-Snow,Snow,20,2013-05-01 01:16:00
7:33 PM,28.4,26.6,93,29.99,0.5,NNE,4.6,-,0.03,Fog-Snow,Snow,30,2013-05-01 01:33:00
7:50 PM,30.2,28.4,93,30.00,0.8,NE,4.6,-,0.04,Snow,Light Snow,40,2013-05-01 01:50:00
7:53 PM,30.0,27.0,88,30.06,0.8,NE,5.8,-,0.04,Snow,Light Snow,50,2013-05-01 01:53:00
8:03 PM,30.2,26.6,86,30.01,1.5,ENE,5.8,-,0.00,Snow,Light Snow,60,2013-05-01 02:03:00
8:13 PM,30.2,28.4,93,30.02,2.5,ENE,5.8,-,0.00,Snow,Light Snow,60,2013-05-01 02:13:00
8:27 PM,30.2,28.4,93,30.04,2.5,NE,5.8,-,0.00,Snow,Light Snow,40,2013-05-01 02:27:00
8:34 PM,30.2,26.6,86,30.03,5.0,NE,6.9,-,0.00,Snow,Light Snow,40,2013-05-01 02:34:00
8:45 PM,30.2,26.6,86,30.04,6.0,NE,9.2,-,0.00,Snow,Light Snow,40,2013-05-01 02:45:00
8:53 PM,30.0,26.1,85,30.08,4.0,NNE,8.1,-,0.00,Snow,Light Snow,30,2013-05-01 02:53:00
9:19 PM,28.4,26.6,93,30.06,2.0,NE,9.2,-,0.00,Snow,Light Snow,40,2013-05-01 03:19:00
9:31 PM,28.4,26.6,93,30.07,2.0,NE,9.2,-,0.00,Snow,Light Snow,40,2013-05-01 03:31:00
9:43 PM,28.4,26.6,93,30.07,4.0,NE,11.5,-,0.00,Snow,Light Snow,40,2013-05-01 03:43:00
9:53 PM,28.9,25.0,85,30.12,5.0,NE,10.4,-,0.00,Snow,Light Snow,40,2013-05-01 03:53:00
10:53 PM,28.0,24.1,85,30.12,10.0,NE,8.1,-,0.00,,Overcast,50,2013-05-01 04:53:00
11:53 PM,28.0,21.9,78,30.10,10.0,NNE,6.9,-,N/A,,Overcast,30,2013-05-01 05:53:00